Location: Trebic
(49.2170°N, 15.8830°E)
Time: 16:43:47
(UTC+02:00)

Transit 4A - Pass Details

Date: 02 September 2019
Orbit: 865 x 980 km, 66.8° (Epoch: 18 September)

Event Time Altitude Azimuth Distance (km) Brightness Sun altitude
Rises 21:41:36 0° 312° (NW) 3,668 12.7 -19.0°
Reaches altitude 10° 21:45:18 10° 332° (NNW) 2,703 11.3 -19.4°
Maximum altitude 21:49:10 17° 10° (N) 2,242 10.2 -19.9°
Drops below altitude 10° 21:52:59 10° 49° (NE) 2,656 10.2 -20.4°
Enters shadow 21:55:32 - 65° (ENE) 3,280 10.5 -20.7°
Sets 21:56:34 0° 70° (ENE) 3,574 - -20.8°
